Information on these data can be found in provided Readme document
Contact Info: Zachary Fasnacht (zachary.fasnacht@ssaihq.com); Nickolay Krotkov (nickolay.a.krotkov@nasa.gov); Lok Lamsal (lok.lamsal@nasa.gov)

FillValue: -999.
ScaleFactor: 1e15
Units: molecules/cm^2

Date(yyyy-mm-dd),City,Country,LonCenter,LatCenter,BoundingCoordinates,Median,Q1,Q3,Mean,Baseline_Median,Baseline_Q1,Baseline_Q3,Baseline_Mean,NumGoodSamples,NumTotalSamples
2015-01-01,Nouakchott,Mauritania,-15.9582,18.0735,[-16.458199999999998 17.5735 -15.4582 18.5735],0.561,0.243,0.798,0.516,0.655,0.331,0.972,0.627,199.0,522.0
2015-01-02,Nouakchott,Mauritania,-15.9582,18.0735,[-16.458199999999998 17.5735 -15.4582 18.5735],0.583,0.288,0.83,0.571,0.666,0.344,0.985,0.65,179.0,541.0
2015-01-03,Nouakchott,Mauritania,-15.9582,18.0735,[-16.458199999999998 17.5735 -15.4582 18.5735],0.591,0.293,0.896,0.6,0.673,0.36,1.014,0.662,198.0,513.0
2015-01-04,Nouakchott,Mauritania,-15.9582,18.0735,[-16.458199999999998 17.5735 -15.4582 18.5735],0.632,0.282,1.058,0.636,0.662,0.331,1.017,0.659,167.0,532.0
2015-01-05,Nouakchott,Mauritania,-15.9582,18.0735,[-16.458199999999998 17.5735 -15.4582 18.5735],0.639,0.294,1.098,0.672,0.682,0.346,1.029,0.669,139.0,520.0
2015-01-06,Nouakchott,Mauritania,-15.9582,18.0735,[-16.458199999999998 17.5735 -15.4582 18.5735],0.632,0.282,1.125,0.667,0.673,0.31,1.033,0.663,141.0,539.0
2015-01-07,Nouakchott,Mauritania,-15.9582,18.0735,[-16.458199999999998 17.5735 -15.4582 18.5735],0.632,0.228,1.138,0.659,0.674,0.297,1.022,0.652,137.0,532.0
2015-01-08,Nouakchott,Mauritania,-15.9582,18.0735,[-16.458199999999998 17.5735 -15.4582 18.5735],0.632,0.227,1.1,0.641,0.692,0.296,1.047,0.661,144.0,532.0
2015-01-09,Nouakchott,Mauritania,-15.9582,18.0735,[-16.458199999999998 17.5735 -15.4582 18.5735],0.632,0.232,1.138,0.653,0.665,0.279,1.05,0.659,133.0,506.0
2015-01-10,Nouakchott,Mauritania,-15.9582,18.0735,[-16.458199999999998 17.5735 -15.4582 18.5735],0.632,0.232,1.138,0.653,0.655,0.245,1.069,0.64,133.0,458.0
2015-01-11,Nouakchott,Mauritania,-15.9582,18.0735,[-16.458199999999998 17.5735 -15.4582 18.5735],0.632,0.165,1.138,0.641,0.632,0.224,1.061,0.626,122.0,476.0
2015-01-12,Nouakchott,Mauritania,-15.9582,18.0735,[-16.458199999999998 17.5735 -15.4582 18.5735],0.621,0.164,1.1,0.624,0.642,0.231,1.052,0.635,131.0,454.0
2015-01-13,Nouakchott,Mauritania,-15.9582,18.0735,[-16.458199999999998 17.5735 -15.4582 18.5735],0.586,0.141,0.999,0.595,0.641,0.254,1.025,0.632,127.0,485.0
2015-01-14,Nouakchott,Mauritania,-15.9582,18.0735,[-16.458199999999998 17.5735 -15.4582 18.5735],0.521,0.164,0.964,0.575,0.599,0.258,1.015,0.63,125.0,463.0
2015-01-15,Nouakchott,Mauritania,-15.9582,18.0735,[-16.458199999999998 17.5735 -15.4582 18.5735],0.5,0.125,0.951,0.538,0.619,0.252,0.999,0.617,138.0,478.0
2015-01-16,Nouakchott,Mauritania,-15.9582,18.0735,[-16.458199999999998 17.5735 -15.4582 18.5735],0.506,0.132,0.951,0.536,0.638,0.262,1.002,0.636,115.0,480.0
2015-01-17,Nouakchott,Mauritania,-15.9582,18.0735,[-16.458199999999998 17.5735 -15.4582 18.5735],0.573,0.165,1.1,0.609,0.64,0.253,1.006,0.641,125.0,467.0
2015-01-18,Nouakchott,Mauritania,-15.9582,18.0735,[-16.458199999999998 17.5735 -15.4582 18.5735],0.491,0.085,0.999,0.553,0.637,0.25,0.998,0.632,106.0,485.0
2015-01-19,Nouakchott,Mauritania,-15.9582,18.0735,[-16.458199999999998 17.5735 -15.4582 18.5735],0.506,0.085,0.934,0.541,0.652,0.248,1.027,0.654,118.0,456.0
2015-01-20,Nouakchott,Mauritania,-15.9582,18.0735,[-16.458199999999998 17.5735 -15.4582 18.5735],0.506,0.085,0.934,0.541,0.658,0.261,1.024,0.656,118.0,473.0
2015-01-21,Nouakchott,Mauritania,-15.9582,18.0735,[-16.458199999999998 17.5735 -15.4582 18.5735],0.551,0.116,0.964,0.548,0.672,0.309,1.02,0.663,98.0,459.0
2015-01-22,Nouakchott,Mauritania,-15.9582,18.0735,[-16.458199999999998 17.5735 -15.4582 18.5735],0.491,-0.004,0.962,0.5,0.678,0.272,1.05,0.659,99.0,479.0
2015-01-23,Nouakchott,Mauritania,-15.9582,18.0735,[-16.458199999999998 17.5735 -15.4582 18.5735],0.491,-0.088,0.933,0.466,0.666,0.239,0.996,0.635,106.0,473.0
2015-01-24,Nouakchott,Mauritania,-15.9582,18.0735,[-16.458199999999998 17.5735 -15.4582 18.5735],0.55,-0.018,0.933,0.511,0.664,0.252,0.97,0.626,133.0,507.0
2015-01-25,Nouakchott,Mauritania,-15.9582,18.0735,[-16.458199999999998 17.5735 -15.4582 18.5735],0.55,-0.018,0.933,0.511,0.681,0.3,0.969,0.638,133.0,541.0
2015-01-26,Nouakchott,Mauritania,-15.9582,18.0735,[-16.458199999999998 17.5735 -15.4582 18.5735],0.577,0.076,0.962,0.537,0.698,0.333,1.025,0.673,153.0,520.0
2015-01-27,Nouakchott,Mauritania,-15.9582,18.0735,[-16.458199999999998 17.5735 -15.4582 18.5735],0.55,0.076,0.962,0.544,0.685,0.315,1.015,0.659,144.0,538.0
2015-01-28,Nouakchott,Mauritania,-15.9582,18.0735,[-16.458199999999998 17.5735 -15.4582 18.5735],0.491,0.076,0.905,0.476,0.674,0.298,1.006,0.639,169.0,516.0
2015-01-29,Nouakchott,Mauritania,-15.9582,18.0735,[-16.458199999999998 17.5735 -15.4582 18.5735],0.536,0.048,0.897,0.474,0.701,0.306,1.008,0.649,150.0,547.0
2015-01-30,Nouakchott,Mauritania,-15.9582,18.0735,[-16.458199999999998 17.5735 -15.4582 18.5735],0.577,0.098,0.905,0.505,0.689,0.297,1.001,0.64,138.0,525.0
2015-01-31,Nouakchott,Mauritania,-15.9582,18.0735,[-16.458199999999998 17.5735 -15.4582 18.5735],0.55,0.137,0.897,0.504,0.66,0.266,0.993,0.629,168.0,537.0
2015-02-01,Nouakchott,Mauritania,-15.9582,18.0735,[-16.458199999999998 17.5735 -15.4582 18.5735],0.504,0.076,0.836,0.446,0.65,0.278,0.965,0.616,158.0,536.0
2015-02-02,Nouakchott,Mauritania,-15.9582,18.0735,[-16.458199999999998 17.5735 -15.4582 18.5735],0.489,0.098,0.832,0.442,0.638,0.277,0.953,0.609,182.0,523.0
2015-02-03,Nouakchott,Mauritania,-15.9582,18.0735,[-16.458199999999998 17.5735 -15.4582 18.5735],0.471,0.114,0.836,0.441,0.627,0.268,0.941,0.594,170.0,541.0
2015-02-04,Nouakchott,Mauritania,-15.9582,18.0735,[-16.458199999999998 17.5735 -15.4582 18.5735],0.42,0.114,0.797,0.433,0.612,0.263,0.929,0.576,187.0,511.0
2015-02-05,Nouakchott,Mauritania,-15.9582,18.0735,[-16.458199999999998 17.5735 -15.4582 18.5735],0.414,0.114,0.771,0.416,0.608,0.251,0.93,0.573,181.0,528.0
2015-02-06,Nouakchott,Mauritania,-15.9582,18.0735,[-16.458199999999998 17.5735 -15.4582 18.5735],0.366,0.076,0.728,0.402,0.581,0.235,0.911,0.563,172.0,516.0
2015-02-07,Nouakchott,Mauritania,-15.9582,18.0735,[-16.458199999999998 17.5735 -15.4582 18.5735],0.381,0.129,0.771,0.433,0.583,0.237,0.919,0.575,184.0,536.0
2015-02-08,Nouakchott,Mauritania,-15.9582,18.0735,[-16.458199999999998 17.5735 -15.4582 18.5735],0.341,0.059,0.729,0.405,0.561,0.193,0.923,0.555,161.0,530.0
2015-02-09,Nouakchott,Mauritania,-15.9582,18.0735,[-16.458199999999998 17.5735 -15.4582 18.5735],0.347,0.042,0.734,0.426,0.568,0.209,0.887,0.555,163.0,529.0
2015-02-10,Nouakchott,Mauritania,-15.9582,18.0735,[-16.458199999999998 17.5735 -15.4582 18.5735],0.336,-0.013,0.707,0.388,0.549,0.158,0.846,0.511,143.0,502.0
2015-02-11,Nouakchott,Mauritania,-15.9582,18.0735,[-16.458199999999998 17.5735 -15.4582 18.5735],0.336,-0.013,0.707,0.388,0.543,0.164,0.845,0.511,143.0,455.0
2015-02-12,Nouakchott,Mauritania,-15.9582,18.0735,[-16.458199999999998 17.5735 -15.4582 18.5735],0.311,-0.016,0.734,0.437,0.558,0.197,0.857,0.545,118.0,473.0
2015-02-13,Nouakchott,Mauritania,-15.9582,18.0735,[-16.458199999999998 17.5735 -15.4582 18.5735],0.314,0.015,0.635,0.396,0.495,0.163,0.825,0.516,144.0,452.0
2015-02-14,Nouakchott,Mauritania,-15.9582,18.0735,[-16.458199999999998 17.5735 -15.4582 18.5735],0.314,0.0,0.628,0.392,0.495,0.162,0.815,0.521,143.0,484.0
2015-02-15,Nouakchott,Mauritania,-15.9582,18.0735,[-16.458199999999998 17.5735 -15.4582 18.5735],0.388,0.129,0.719,0.46,0.505,0.163,0.827,0.525,133.0,462.0
2015-02-16,Nouakchott,Mauritania,-15.9582,18.0735,[-16.458199999999998 17.5735 -15.4582 18.5735],0.388,0.135,0.734,0.457,0.514,0.179,0.845,0.536,164.0,476.0
2015-02-17,Nouakchott,Mauritania,-15.9582,18.0735,[-16.458199999999998 17.5735 -15.4582 18.5735],0.388,0.135,0.747,0.463,0.536,0.196,0.885,0.561,140.0,478.0
2015-02-18,Nouakchott,Mauritania,-15.9582,18.0735,[-16.458199999999998 17.5735 -15.4582 18.5735],0.388,0.053,0.719,0.447,0.533,0.186,0.876,0.553,161.0,465.0
2015-02-19,Nouakchott,Mauritania,-15.9582,18.0735,[-16.458199999999998 17.5735 -15.4582 18.5735],0.394,0.053,0.764,0.457,0.545,0.188,0.895,0.566,144.0,484.0
2015-02-20,Nouakchott,Mauritania,-15.9582,18.0735,[-16.458199999999998 17.5735 -15.4582 18.5735],0.388,0.037,0.719,0.427,0.536,0.18,0.882,0.554,163.0,454.0
2015-02-21,Nouakchott,Mauritania,-15.9582,18.0735,[-16.458199999999998 17.5735 -15.4582 18.5735],0.434,0.096,0.747,0.466,0.541,0.196,0.877,0.556,149.0,471.0
2015-02-22,Nouakchott,Mauritania,-15.9582,18.0735,[-16.458199999999998 17.5735 -15.4582 18.5735],0.496,0.233,0.734,0.503,0.551,0.22,0.865,0.56,155.0,455.0
2015-02-23,Nouakchott,Mauritania,-15.9582,18.0735,[-16.458199999999998 17.5735 -15.4582 18.5735],0.491,0.232,0.719,0.488,0.551,0.235,0.852,0.566,177.0,474.0
2015-02-24,Nouakchott,Mauritania,-15.9582,18.0735,[-16.458199999999998 17.5735 -15.4582 18.5735],0.496,0.233,0.719,0.468,0.524,0.204,0.852,0.545,198.0,469.0
2015-02-25,Nouakchott,Mauritania,-15.9582,18.0735,[-16.458199999999998 17.5735 -15.4582 18.5735],0.491,0.226,0.719,0.468,0.532,0.194,0.862,0.549,226.0,501.0
2015-02-26,Nouakchott,Mauritania,-15.9582,18.0735,[-16.458199999999998 17.5735 -15.4582 18.5735],0.495,0.232,0.722,0.474,0.537,0.196,0.857,0.548,253.0,535.0
2015-02-27,Nouakchott,Mauritania,-15.9582,18.0735,[-16.458199999999998 17.5735 -15.4582 18.5735],0.496,0.232,0.734,0.487,0.542,0.205,0.865,0.546,274.0,514.0
2015-02-28,Nouakchott,Mauritania,-15.9582,18.0735,[-16.458199999999998 17.5735 -15.4582 18.5735],0.528,0.238,0.831,0.523,0.551,0.214,0.88,0.55,248.0,533.0
2015-03-01,Nouakchott,Mauritania,-15.9582,18.0735,[-16.458199999999998 17.5735 -15.4582 18.5735],0.527,0.244,0.818,0.521,0.552,0.216,0.877,0.548,262.0,510.0
2015-03-02,Nouakchott,Mauritania,-15.9582,18.0735,[-16.458199999999998 17.5735 -15.4582 18.5735],0.508,0.224,0.738,0.483,0.538,0.199,0.859,0.539,243.0,541.0
2015-03-03,Nouakchott,Mauritania,-15.9582,18.0735,[-16.458199999999998 17.5735 -15.4582 18.5735],0.496,0.205,0.703,0.461,0.519,0.193,0.84,0.52,230.0,521.0
2015-03-04,Nouakchott,Mauritania,-15.9582,18.0735,[-16.458199999999998 17.5735 -15.4582 18.5735],0.496,0.194,0.706,0.464,0.498,0.181,0.796,0.498,259.0,531.0
2015-03-05,Nouakchott,Mauritania,-15.9582,18.0735,[-16.458199999999998 17.5735 -15.4582 18.5735],0.516,0.224,0.734,0.483,0.499,0.206,0.799,0.508,254.0,532.0
2015-03-06,Nouakchott,Mauritania,-15.9582,18.0735,[-16.458199999999998 17.5735 -15.4582 18.5735],0.508,0.179,0.714,0.462,0.496,0.197,0.794,0.498,278.0,518.0
2015-03-07,Nouakchott,Mauritania,-15.9582,18.0735,[-16.458199999999998 17.5735 -15.4582 18.5735],0.518,0.247,0.742,0.478,0.501,0.213,0.81,0.506,267.0,538.0
2015-03-08,Nouakchott,Mauritania,-15.9582,18.0735,[-16.458199999999998 17.5735 -15.4582 18.5735],0.508,0.224,0.733,0.476,0.512,0.224,0.821,0.515,286.0,509.0
2015-03-09,Nouakchott,Mauritania,-15.9582,18.0735,[-16.458199999999998 17.5735 -15.4582 18.5735],0.449,0.109,0.733,0.438,0.486,0.201,0.821,0.502,254.0,528.0
2015-03-10,Nouakchott,Mauritania,-15.9582,18.0735,[-16.458199999999998 17.5735 -15.4582 18.5735],0.5,0.209,0.785,0.494,0.498,0.217,0.827,0.51,260.0,515.0
2015-03-11,Nouakchott,Mauritania,-15.9582,18.0735,[-16.458199999999998 17.5735 -15.4582 18.5735],0.499,0.182,0.785,0.5,0.496,0.223,0.817,0.516,264.0,535.0
2015-03-12,Nouakchott,Mauritania,-15.9582,18.0735,[-16.458199999999998 17.5735 -15.4582 18.5735],0.508,0.189,0.822,0.53,0.492,0.225,0.807,0.508,257.0,527.0
2015-03-13,Nouakchott,Mauritania,-15.9582,18.0735,[-16.458199999999998 17.5735 -15.4582 18.5735],0.508,0.186,0.822,0.531,0.495,0.229,0.824,0.52,257.0,528.0
2015-03-14,Nouakchott,Mauritania,-15.9582,18.0735,[-16.458199999999998 17.5735 -15.4582 18.5735],0.508,0.175,0.822,0.521,0.478,0.227,0.8,0.507,236.0,502.0
2015-03-15,Nouakchott,Mauritania,-15.9582,18.0735,[-16.458199999999998 17.5735 -15.4582 18.5735],0.508,0.175,0.822,0.521,0.489,0.243,0.812,0.519,236.0,453.0
2015-03-16,Nouakchott,Mauritania,-15.9582,18.0735,[-16.458199999999998 17.5735 -15.4582 18.5735],0.508,0.174,0.856,0.522,0.493,0.237,0.814,0.522,222.0,471.0
2015-03-17,Nouakchott,Mauritania,-15.9582,18.0735,[-16.458199999999998 17.5735 -15.4582 18.5735],0.455,0.144,0.746,0.475,0.486,0.242,0.809,0.528,248.0,451.0
2015-03-18,Nouakchott,Mauritania,-15.9582,18.0735,[-16.458199999999998 17.5735 -15.4582 18.5735],0.489,0.168,0.792,0.501,0.526,0.25,0.866,0.557,233.0,479.0
2015-03-19,Nouakchott,Mauritania,-15.9582,18.0735,[-16.458199999999998 17.5735 -15.4582 18.5735],0.489,0.167,0.792,0.493,0.527,0.24,0.863,0.547,223.0,459.0
2015-03-20,Nouakchott,Mauritania,-15.9582,18.0735,[-16.458199999999998 17.5735 -15.4582 18.5735],0.469,0.167,0.777,0.484,0.524,0.225,0.863,0.545,237.0,470.0
2015-03-21,Nouakchott,Mauritania,-15.9582,18.0735,[-16.458199999999998 17.5735 -15.4582 18.5735],0.499,0.181,0.821,0.529,0.547,0.237,0.869,0.562,230.0,472.0
2015-03-22,Nouakchott,Mauritania,-15.9582,18.0735,[-16.458199999999998 17.5735 -15.4582 18.5735],0.499,0.186,0.821,0.538,0.567,0.249,0.891,0.582,242.0,459.0
2015-03-23,Nouakchott,Mauritania,-15.9582,18.0735,[-16.458199999999998 17.5735 -15.4582 18.5735],0.501,0.182,0.821,0.531,0.568,0.246,0.896,0.581,241.0,480.0
2015-03-24,Nouakchott,Mauritania,-15.9582,18.0735,[-16.458199999999998 17.5735 -15.4582 18.5735],0.495,0.179,0.782,0.509,0.584,0.237,0.904,0.586,261.0,451.0
2015-03-25,Nouakchott,Mauritania,-15.9582,18.0735,[-16.458199999999998 17.5735 -15.4582 18.5735],0.402,0.134,0.762,0.463,0.542,0.224,0.892,0.565,229.0,470.0
2015-03-26,Nouakchott,Mauritania,-15.9582,18.0735,[-16.458199999999998 17.5735 -15.4582 18.5735],0.49,0.147,0.758,0.463,0.573,0.226,0.887,0.561,232.0,455.0
2015-03-27,Nouakchott,Mauritania,-15.9582,18.0735,[-16.458199999999998 17.5735 -15.4582 18.5735],0.417,0.118,0.673,0.42,0.573,0.239,0.888,0.57,247.0,478.0
2015-03-28,Nouakchott,Mauritania,-15.9582,18.0735,[-16.458199999999998 17.5735 -15.4582 18.5735],0.377,0.106,0.654,0.389,0.552,0.236,0.883,0.563,239.0,467.0
2015-03-29,Nouakchott,Mauritania,-15.9582,18.0735,[-16.458199999999998 17.5735 -15.4582 18.5735],0.372,0.092,0.654,0.371,0.556,0.231,0.878,0.551,265.0,503.0
2015-03-30,Nouakchott,Mauritania,-15.9582,18.0735,[-16.458199999999998 17.5735 -15.4582 18.5735],0.384,0.092,0.667,0.377,0.553,0.207,0.872,0.541,295.0,541.0
2015-03-31,Nouakchott,Mauritania,-15.9582,18.0735,[-16.458199999999998 17.5735 -15.4582 18.5735],0.4,0.112,0.685,0.401,0.558,0.214,0.868,0.549,319.0,524.0
2015-04-01,Nouakchott,Mauritania,-15.9582,18.0735,[-16.458199999999998 17.5735 -15.4582 18.5735],0.473,0.095,0.754,0.426,0.559,0.207,0.86,0.538,292.0,541.0
2015-04-02,Nouakchott,Mauritania,-15.9582,18.0735,[-16.458199999999998 17.5735 -15.4582 18.5735],0.476,0.126,0.758,0.439,0.534,0.21,0.845,0.517,317.0,523.0
2015-04-03,Nouakchott,Mauritania,-15.9582,18.0735,[-16.458199999999998 17.5735 -15.4582 18.5735],0.476,0.118,0.758,0.442,0.539,0.227,0.837,0.529,303.0,555.0
2015-04-04,Nouakchott,Mauritania,-15.9582,18.0735,[-16.458199999999998 17.5735 -15.4582 18.5735],0.49,0.118,0.758,0.449,0.526,0.207,0.842,0.52,292.0,535.0
2015-04-05,Nouakchott,Mauritania,-15.9582,18.0735,[-16.458199999999998 17.5735 -15.4582 18.5735],0.464,0.118,0.691,0.421,0.517,0.203,0.825,0.51,305.0,548.0
2015-04-06,Nouakchott,Mauritania,-15.9582,18.0735,[-16.458199999999998 17.5735 -15.4582 18.5735],0.452,0.116,0.727,0.42,0.518,0.21,0.803,0.496,303.0,550.0
2015-04-07,Nouakchott,Mauritania,-15.9582,18.0735,[-16.458199999999998 17.5735 -15.4582 18.5735],0.476,0.151,0.754,0.442,0.519,0.225,0.814,0.505,304.0,535.0
2015-04-08,Nouakchott,Mauritania,-15.9582,18.0735,[-16.458199999999998 17.5735 -15.4582 18.5735],0.49,0.174,0.772,0.46,0.523,0.23,0.821,0.51,302.0,557.0
2015-04-09,Nouakchott,Mauritania,-15.9582,18.0735,[-16.458199999999998 17.5735 -15.4582 18.5735],0.476,0.161,0.758,0.448,0.536,0.239,0.839,0.523,322.0,525.0
2015-04-10,Nouakchott,Mauritania,-15.9582,18.0735,[-16.458199999999998 17.5735 -15.4582 18.5735],0.448,0.161,0.755,0.443,0.54,0.243,0.838,0.529,292.0,544.0
2015-04-11,Nouakchott,Mauritania,-15.9582,18.0735,[-16.458199999999998 17.5735 -15.4582 18.5735],0.452,0.165,0.696,0.44,0.542,0.228,0.833,0.526,286.0,531.0
2015-04-12,Nouakchott,Mauritania,-15.9582,18.0735,[-16.458199999999998 17.5735 -15.4582 18.5735],0.476,0.196,0.7,0.456,0.54,0.229,0.828,0.518,303.0,555.0
2015-04-13,Nouakchott,Mauritania,-15.9582,18.0735,[-16.458199999999998 17.5735 -15.4582 18.5735],0.507,0.226,0.775,0.502,0.552,0.264,0.855,0.535,299.0,546.0
2015-04-14,Nouakchott,Mauritania,-15.9582,18.0735,[-16.458199999999998 17.5735 -15.4582 18.5735],0.503,0.199,0.755,0.493,0.564,0.248,0.856,0.545,295.0,542.0
2015-04-15,Nouakchott,Mauritania,-15.9582,18.0735,[-16.458199999999998 17.5735 -15.4582 18.5735],0.496,0.196,0.702,0.475,0.548,0.223,0.84,0.53,271.0,512.0
2015-04-16,Nouakchott,Mauritania,-15.9582,18.0735,[-16.458199999999998 17.5735 -15.4582 18.5735],0.496,0.196,0.702,0.475,0.56,0.243,0.852,0.544,271.0,464.0
2015-04-17,Nouakchott,Mauritania,-15.9582,18.0735,[-16.458199999999998 17.5735 -15.4582 18.5735],0.503,0.174,0.696,0.468,0.547,0.221,0.853,0.537,243.0,481.0
2015-04-18,Nouakchott,Mauritania,-15.9582,18.0735,[-16.458199999999998 17.5735 -15.4582 18.5735],0.478,0.174,0.702,0.463,0.537,0.213,0.854,0.534,264.0,458.0
2015-04-19,Nouakchott,Mauritania,-15.9582,18.0735,[-16.458199999999998 17.5735 -15.4582 18.5735],0.45,0.161,0.705,0.456,0.529,0.202,0.837,0.524,246.0,489.0
2015-04-20,Nouakchott,Mauritania,-15.9582,18.0735,[-16.458199999999998 17.5735 -15.4582 18.5735],0.503,0.165,0.727,0.483,0.521,0.203,0.832,0.522,235.0,467.0
2015-04-21,Nouakchott,Mauritania,-15.9582,18.0735,[-16.458199999999998 17.5735 -15.4582 18.5735],0.478,0.174,0.727,0.482,0.506,0.199,0.832,0.52,248.0,479.0
2015-04-22,Nouakchott,Mauritania,-15.9582,18.0735,[-16.458199999999998 17.5735 -15.4582 18.5735],0.496,0.174,0.731,0.489,0.511,0.205,0.826,0.525,243.0,477.0
2015-04-23,Nouakchott,Mauritania,-15.9582,18.0735,[-16.458199999999998 17.5735 -15.4582 18.5735],0.478,0.174,0.771,0.489,0.502,0.209,0.825,0.523,248.0,462.0
2015-04-24,Nouakchott,Mauritania,-15.9582,18.0735,[-16.458199999999998 17.5735 -15.4582 18.5735],0.514,0.214,0.781,0.521,0.52,0.216,0.84,0.533,246.0,480.0
2015-04-25,Nouakchott,Mauritania,-15.9582,18.0735,[-16.458199999999998 17.5735 -15.4582 18.5735],0.514,0.228,0.781,0.531,0.515,0.221,0.834,0.536,266.0,450.0
2015-04-26,Nouakchott,Mauritania,-15.9582,18.0735,[-16.458199999999998 17.5735 -15.4582 18.5735],0.537,0.23,0.85,0.57,0.533,0.21,0.835,0.536,236.0,468.0
2015-04-27,Nouakchott,Mauritania,-15.9582,18.0735,[-16.458199999999998 17.5735 -15.4582 18.5735],0.67,0.371,0.966,0.653,0.564,0.264,0.867,0.567,232.0,452.0
2015-04-28,Nouakchott,Mauritania,-15.9582,18.0735,[-16.458199999999998 17.5735 -15.4582 18.5735],0.657,0.31,0.937,0.634,0.552,0.223,0.853,0.552,246.0,472.0
2015-04-29,Nouakchott,Mauritania,-15.9582,18.0735,[-16.458199999999998 17.5735 -15.4582 18.5735],0.691,0.371,0.979,0.673,0.535,0.213,0.839,0.541,246.0,467.0
2015-04-30,Nouakchott,Mauritania,-15.9582,18.0735,[-16.458199999999998 17.5735 -15.4582 18.5735],0.691,0.396,0.996,0.681,0.534,0.223,0.841,0.544,272.0,500.0
2015-05-01,Nouakchott,Mauritania,-15.9582,18.0735,[-16.458199999999998 17.5735 -15.4582 18.5735],0.715,0.396,1.031,0.692,0.544,0.218,0.858,0.544,294.0,531.0
2015-05-02,Nouakchott,Mauritania,-15.9582,18.0735,[-16.458199999999998 17.5735 -15.4582 18.5735],0.712,0.405,0.996,0.697,0.542,0.228,0.851,0.55,313.0,508.0
2015-05-03,Nouakchott,Mauritania,-15.9582,18.0735,[-16.458199999999998 17.5735 -15.4582 18.5735],0.728,0.473,1.055,0.74,0.544,0.243,0.881,0.564,287.0,525.0
2015-05-04,Nouakchott,Mauritania,-15.9582,18.0735,[-16.458199999999998 17.5735 -15.4582 18.5735],0.712,0.408,0.996,0.706,0.555,0.248,0.889,0.578,298.0,504.0
2015-05-05,Nouakchott,Mauritania,-15.9582,18.0735,[-16.458199999999998 17.5735 -15.4582 18.5735],0.712,0.41,1.055,0.715,0.57,0.264,0.9,0.581,279.0,538.0
2015-05-06,Nouakchott,Mauritania,-15.9582,18.0735,[-16.458199999999998 17.5735 -15.4582 18.5735],0.665,0.396,0.996,0.693,0.543,0.251,0.881,0.572,266.0,519.0
2015-05-07,Nouakchott,Mauritania,-15.9582,18.0735,[-16.458199999999998 17.5735 -15.4582 18.5735],0.659,0.396,0.971,0.682,0.528,0.231,0.872,0.555,284.0,534.0
2015-05-08,Nouakchott,Mauritania,-15.9582,18.0735,[-16.458199999999998 17.5735 -15.4582 18.5735],0.661,0.41,0.996,0.693,0.549,0.26,0.866,0.561,272.0,529.0
2015-05-09,Nouakchott,Mauritania,-15.9582,18.0735,[-16.458199999999998 17.5735 -15.4582 18.5735],0.657,0.396,0.985,0.678,0.538,0.245,0.852,0.553,278.0,521.0
2015-05-10,Nouakchott,Mauritania,-15.9582,18.0735,[-16.458199999999998 17.5735 -15.4582 18.5735],0.657,0.395,0.985,0.674,0.526,0.23,0.833,0.542,276.0,537.0
2015-05-11,Nouakchott,Mauritania,-15.9582,18.0735,[-16.458199999999998 17.5735 -15.4582 18.5735],0.634,0.328,0.971,0.646,0.531,0.22,0.852,0.541,293.0,507.0
2015-05-12,Nouakchott,Mauritania,-15.9582,18.0735,[-16.458199999999998 17.5735 -15.4582 18.5735],0.508,0.301,0.88,0.584,0.481,0.186,0.802,0.499,261.0,528.0
2015-05-13,Nouakchott,Mauritania,-15.9582,18.0735,[-16.458199999999998 17.5735 -15.4582 18.5735],0.534,0.295,0.868,0.572,0.508,0.194,0.807,0.508,255.0,516.0
2015-05-14,Nouakchott,Mauritania,-15.9582,18.0735,[-16.458199999999998 17.5735 -15.4582 18.5735],0.508,0.29,0.804,0.546,0.523,0.218,0.8,0.516,265.0,533.0
2015-05-15,Nouakchott,Mauritania,-15.9582,18.0735,[-16.458199999999998 17.5735 -15.4582 18.5735],0.486,0.28,0.796,0.526,0.512,0.21,0.791,0.51,265.0,530.0
2015-05-16,Nouakchott,Mauritania,-15.9582,18.0735,[-16.458199999999998 17.5735 -15.4582 18.5735],0.479,0.242,0.767,0.494,0.501,0.193,0.782,0.497,270.0,530.0
2015-05-17,Nouakchott,Mauritania,-15.9582,18.0735,[-16.458199999999998 17.5735 -15.4582 18.5735],0.462,0.215,0.754,0.471,0.512,0.186,0.787,0.499,251.0,504.0
2015-05-18,Nouakchott,Mauritania,-15.9582,18.0735,[-16.458199999999998 17.5735 -15.4582 18.5735],0.462,0.215,0.754,0.471,0.502,0.173,0.774,0.485,251.0,458.0
2015-05-19,Nouakchott,Mauritania,-15.9582,18.0735,[-16.458199999999998 17.5735 -15.4582 18.5735],0.479,0.191,0.767,0.48,0.509,0.167,0.77,0.486,239.0,475.0
2015-05-20,Nouakchott,Mauritania,-15.9582,18.0735,[-16.458199999999998 17.5735 -15.4582 18.5735],0.442,0.148,0.713,0.444,0.507,0.167,0.76,0.479,263.0,450.0
2015-05-21,Nouakchott,Mauritania,-15.9582,18.0735,[-16.458199999999998 17.5735 -15.4582 18.5735],0.451,0.146,0.751,0.449,0.507,0.155,0.788,0.48,245.0,479.0
2015-05-22,Nouakchott,Mauritania,-15.9582,18.0735,[-16.458199999999998 17.5735 -15.4582 18.5735],0.462,0.161,0.772,0.457,0.506,0.149,0.797,0.475,232.0,458.0
2015-05-23,Nouakchott,Mauritania,-15.9582,18.0735,[-16.458199999999998 17.5735 -15.4582 18.5735],0.462,0.169,0.772,0.454,0.506,0.165,0.8,0.476,253.0,475.0
2015-05-24,Nouakchott,Mauritania,-15.9582,18.0735,[-16.458199999999998 17.5735 -15.4582 18.5735],0.462,0.161,0.772,0.448,0.509,0.17,0.804,0.476,243.0,473.0
2015-05-25,Nouakchott,Mauritania,-15.9582,18.0735,[-16.458199999999998 17.5735 -15.4582 18.5735],0.462,0.169,0.768,0.442,0.497,0.174,0.801,0.469,247.0,465.0
2015-05-26,Nouakchott,Mauritania,-15.9582,18.0735,[-16.458199999999998 17.5735 -15.4582 18.5735],0.494,0.175,0.799,0.478,0.495,0.161,0.793,0.472,248.0,482.0
2015-05-27,Nouakchott,Mauritania,-15.9582,18.0735,[-16.458199999999998 17.5735 -15.4582 18.5735],0.51,0.175,0.775,0.479,0.513,0.174,0.802,0.488,268.0,451.0
2015-05-28,Nouakchott,Mauritania,-15.9582,18.0735,[-16.458199999999998 17.5735 -15.4582 18.5735],0.494,0.169,0.775,0.467,0.489,0.155,0.792,0.476,238.0,468.0
2015-05-29,Nouakchott,Mauritania,-15.9582,18.0735,[-16.458199999999998 17.5735 -15.4582 18.5735],0.494,0.169,0.834,0.489,0.485,0.149,0.798,0.474,234.0,454.0
2015-05-30,Nouakchott,Mauritania,-15.9582,18.0735,[-16.458199999999998 17.5735 -15.4582 18.5735],0.475,0.158,0.799,0.47,0.49,0.151,0.804,0.469,243.0,471.0